User: anonymous   Login
Location: Unspecified
(0.0000°N, 0.0000°E)
Time: 02:27:51
(UTC+00:00)
Language:

Tiros 1 despin weight - Orbit

View from above orbital plane
View from above orbital plane
View from above satellite
View from above satellite

Ground track
Ground track

The orbit data is extracted from the following two-line orbital elements,

1 00115U 60002D   24145.15058982  .00005152  00000-0  55467-3 0  9992
2 00115  48.1621 189.1782 0030259 116.2546 244.1484 14.89465157405355
Epoch (UTC): 24 May 2024 03:36:50
Eccentricity: 0.0030259
inclination: 48.1621°
perigee height: 578 km
apogee height: 621 km
right ascension of ascending node: 189.1782°
argument of perigee: 116.2546°
revolutions per day: 14.89465157
mean anomaly at epoch: 244.1484°
orbit number at epoch: 40535

The dashed part of the orbit path shows where the satellite is in the earth's shadow,  

DLR